Location: Poughquag
(41.6090°N, 73.6820°W)
Time: 14:22:46
(UTC-04:00)

Explorer 11/Cluster Stage 4 - Pass Details

Date: 03 June 2020
Orbit: 467 x 1259 km, 28.8° (Epoch: 05 July)

Event Time Altitude Azimuth Distance (km) Brightness Sun altitude
Rises 08:10:54 0° 251° (WSW) 3,542 9.4 28.9°
Reaches altitude 10° 08:13:43 10° 239° (WSW) 2,727 9.0 29.4°
Maximum altitude 08:19:18 28° 184° (S) 1,936 8.7 30.5°
Drops below altitude 10° 08:25:39 10° 130° (SE) 3,126 10.4 31.7°
Sets 08:29:07 0° 119° (ESE) 4,153 11.1 32.3°
